Location: Neuvy Saint Sepulchre
(46.5953°N, 1.8122°E)
Time: 13:14:27
(UTC+02:00)

ISS - Pass Details

Date: 22 September 2022
Orbit: 414 x 417 km, 51.6° (Epoch: 01 October)

Event Time Altitude Azimuth Distance (km) Brightness Sun altitude
Rises 22:56:04 0° 293° (WNW) 2,366 1.1 -30.5°
Reaches altitude 10° 22:58:15 10° 301° (WNW) 1,501 -0.1 -30.8°
Enters shadow 22:58:43 13° 304° (NW) 1,324 -0.4 -30.8°
